Location: Unspecified
(43.4680°N, 87.1740°E)
Time: 20:04:19
(UTC+00:00)

NOSS 0 Rocket - Pass Details

Date: 01 August 2021
Orbit: 936 x 954 km, 70.0° (Epoch: 22 September)

Event Time Altitude Azimuth Distance (km) Brightness Sun altitude
Rises 18:44:11 0° 321° (NW) 3,633 7.6 -28.4°
Reaches altitude 10° 18:47:18 10° 306° (NW) 2,680 6.6 -28.3°
Enters shadow 18:50:57 21° 271° (W) 1,995 5.5 -28.2°
